Simultaneous Nadir Overpasses (SNOs) Predictions

Prediction of SNOs between GOES-15 and TERRA Satellite Orbit:

Table of predicted SNOs for the next 14.0 days since TLE Epoch: 2/28/2025
Index Date Time (GOES-15) GOES-15 Lat,Lon TERRA Lat,Lon Distance(km) Time Diff (sec)
1 03/01/2025 05:24:37 -0.02, 61.37 -0.07, 61.69 36.52 80
2 03/03/2025 17:22:54 0.02, 61.32 0.05, 61.41 11.08 80
3 03/06/2025 05:23:42 -0.03, 61.35 0.01, 61.18 20.17 80
4 03/08/2025 05:07:35 -0.03, 61.35 -0.94, 65.70 494.10 80
5 03/08/2025 17:27:16 0.04, 61.31 -0.08, 60.91 46.10 80
6 03/10/2025 17:05:48 0.03, 61.32 0.87, 65.44 468.31 80
7 03/11/2025 05:25:21 -0.04, 61.36 0.12, 60.68 77.73 80
8 03/13/2025 05:09:12 -0.03, 61.36 -0.82, 65.22 437.62 80
9 03/13/2025 17:28:53 0.04, 61.32 -0.17, 60.43 101.49 80
